[TLELIST] Archives

 

[TLELIST] Current TLEs

October 1st 2023 PDT

HST 1 20580U 90037B 23273.50113635 .00006155 00000-0 31812-3 0 9990 2 20580 28.4692 286.7965 0002641 84.9220 46.6564 15.14210466637691 ISS (ZARYA) 1 25544U 98067A 23274.21251013 .00057819 00000-0 10254-2 0 9997 2 25544 51.6408 163.3694 0005202 65.8884 76.5711 15.49662113418239 CXO 1 25867U 99040B 23276.36920278 .00000879 00000-0 00000+0 0 9990 2 25867 37.3758 183.0353 9048941 273.7050 0.2188 0.37812691 24748 ...Continue Reading

[TLELIST] Current TLEs

September 30th 2023 PDT

HST 1 20580U 90037B 23272.44218154 .00005751 00000-0 29673-3 0 9997 2 20580 28.4694 293.8532 0002616 74.0641 33.5155 15.14196740637274 ISS (ZARYA) 1 25544U 98067A 23273.24545508 .00067079 00000-0 11884-2 0 9993 2 25544 51.6412 168.1604 0005228 59.8641 84.1972 15.49628391418087 CXO 1 25867U 99040B 23276.36920278 .00000879 00000-0 00000+0 0 9990 2 25867 37.3758 183.0353 9048941 273.7050 0.2188 0.37812691 24748 ...Continue Reading

[TLELIST] Current TLEs

September 30th 2023 PDT

HST 1 20580U 90037B 23272.44218154 .00005751 00000-0 29673-3 0 9997 2 20580 28.4694 293.8532 0002616 74.0641 33.5155 15.14196740637274 ISS (ZARYA) 1 25544U 98067A 23273.24545508 .00067079 00000-0 11884-2 0 9993 2 25544 51.6412 168.1604 0005228 59.8641 84.1972 15.49628391418087 CXO 1 25867U 99040B 23276.36920278 .00000879 00000-0 00000+0 0 9990 2 25867 37.3758 183.0353 9048941 273.7050 0.2188 0.37812691 24748 ...Continue Reading

[TLELIST] Current TLEs

September 29th 2023 PDT

HST 1 20580U 90037B 23271.45925194 .00005733 00000-0 29589-3 0 9992 2 20580 28.4696 300.4032 0002580 64.3532 74.5224 15.14184960637124 ISS (ZARYA) 1 25544U 98067A 23272.21223998 .00028711 00000-0 51107-3 0 9998 2 25544 51.6412 173.2723 0005697 69.3164 66.8459 15.49885187417929 CXO 1 25867U 99040B 23273.72941491 .00000914 00000-0 00000+0 0 9997 2 25867 37.3608 183.4492 9047147 273.3632 0.8912 0.37809167 24733 ...Continue Reading

[TLELIST] Current TLEs

September 28th 2023 PDT

HST 1 20580U 90037B 23271.17936852 .00005764 00000-0 29752-3 0 9990 2 20580 28.4695 302.2681 0002573 62.1623 348.0153 15.14182267637344 ISS (ZARYA) 1 25544U 98067A 23271.30279025 .00028951 00000-0 51616-3 0 9990 2 25544 51.6418 177.7770 0005803 66.0906 32.4598 15.49834271417788 CXO 1 25867U 99040B 23273.72941491 .00000914 00000-0 00000+0 0 9997 2 25867 37.3608 183.4492 9047147 273.3632 0.8912 0.37809167 24733 ...Continue Reading

[TLELIST] Current TLEs

September 27th 2023 PDT

HST 1 20580U 90037B 23269.54412545 .00007713 00000-0 40169-3 0 9997 2 20580 28.4701 313.1640 0002500 46.9677 71.7203 15.14162088637094 ISS (ZARYA) 1 25544U 98067A 23270.09434028 .00025309 00000-0 45380-3 0 9996 2 25544 51.6415 183.7622 0005410 63.3024 128.5013 15.49751646417595 CXO 1 25867U 99040B 23271.08407771 .00001069 00000-0 00000-0 0 9995 2 25867 37.3543 183.8310 9043691 273.0555 0.7303 0.37811032 13561 ...Continue Reading

[TLELIST] Current TLEs

September 27th 2023 PDT

HST 1 20580U 90037B 23269.54412545 .00007713 00000-0 40169-3 0 9997 2 20580 28.4701 313.1640 0002500 46.9677 71.7203 15.14162088637094 ISS (ZARYA) 1 25544U 98067A 23270.09434028 .00025309 00000-0 45380-3 0 9996 2 25544 51.6415 183.7622 0005410 63.3024 128.5013 15.49751646417595 CXO 1 25867U 99040B 23271.08407771 .00001069 00000-0 00000-0 0 9995 2 25867 37.3543 183.8310 9043691 273.0555 0.7303 0.37811032 13561 ...Continue Reading

[TLELIST] Current TLEs

September 26th 2023 PDT

HST 1 20580U 90037B 23268.82502331 .00007591 00000-0 39531-3 0 9995 2 20580 28.4702 317.9550 0002445 39.8519 111.2355 15.14151413636728 ISS (ZARYA) 1 25544U 98067A 23269.31288093 .00024845 00000-0 44631-3 0 9990 2 25544 51.6424 187.6326 0005809 63.4528 85.6671 15.49708063417476 CXO 1 25867U 99040B 23271.08407771 .00001069 00000-0 00000-0 0 9995 2 25867 37.3543 183.8310 9043691 273.0555 0.7303 0.37811032 13561 ...Continue Reading

[TLELIST] Current TLEs

September 25th 2023 PDT

HST 1 20580U 90037B 23267.56573062 .00006488 00000-0 33663-3 0 9998 2 20580 28.4705 326.3448 0002365 26.2288 86.9044 15.14131942636532 ISS (ZARYA) 1 25544U 98067A 23268.27860045 .00019455 00000-0 35229-3 0 9991 2 25544 51.6420 192.7535 0005874 59.8797 75.3053 15.49641125417318 CXO 1 25867U 99040B 23271.08378024 .00001069 00000-0 00000+0 0 9992 2 25867 37.3543 183.8310 9043690 273.0555 0.6895 0.37811165 24722 ...Continue Reading

[TLELIST] Current TLEs

September 25th 2023 PDT

HST 1 20580U 90037B 23267.56573062 .00006488 00000-0 33663-3 0 9998 2 20580 28.4705 326.3448 0002365 26.2288 86.9044 15.14131942636532 ISS (ZARYA) 1 25544U 98067A 23268.27860045 .00019455 00000-0 35229-3 0 9991 2 25544 51.6420 192.7535 0005874 59.8797 75.3053 15.49641125417318 CXO 1 25867U 99040B 23271.08378024 .00001069 00000-0 00000+0 0 9992 2 25867 37.3543 183.8310 9043690 273.0555 0.6895 0.37811165 24722 ...Continue Reading
  • This mailing list is a public mailing list - anyone may join or leave, at any time.
  • This mailing list is announce-only.

International Space Station (ISS) / Hubble Space Telescope (HST) / Chandra X-Ray Observatory Orbital Data via EMAIL

Privacy Policy:

Private list